Regional Weather Roundup
Issued by NWS

Home | Current Version | Previous Version | Text Only | Print | Product List | Glossary On
Versions: 1 2 3 4 5 6 7 8 9 10 11 12 13 14 15 16 17 18 19 20 21 22 23 24 25 26 27 28 29 30 31 32 33 34 35 36 37 38 39 40 41 42 43 44 45 46 47 48 49 50
000
ASUS46 KPQR 271310
RWROR

OREGON REGIONAL WEATHER ROUNDUP
NATIONAL WEATHER SERVICE PORTLAND OR
600 AM PDT FRI MAR 27 2015

NOTE: "FAIR" INDICATES FEW OR NO CLOUDS BELOW 12,000 FEET WITH
NO SIGNIFICANT WEATHER AND/OR OBSTRUCTIONS TO VISIBILITY.

ORZ001>013-271400-
NORTHWEST OREGON


CITY           SKY/WX    TMP DP  RH WIND       PRES   REMARKS
ASTORIA        CLOUDY    46  44  93 CALM      30.03F
NEWPORT        CLOUDY    52  52 100 S5        30.09F FOG
PORTLAND       PTCLDY    48  48 100 NE3       30.06S
VANCOUVER WA   CLEAR     44  42  93 CALM      30.05S
SCAPPOOSE      FOG       43  42  97 CALM      30.05S VSB 3/4
HILLSBORO      CLEAR     43  42  97 CALM      30.05S
AURORA         CLEAR     46  45  96 CALM      30.06S
MCMINNVILLE    FOG       45  44  97 CALM      30.06S VSB 1/4
SALEM          CLEAR     47  45  93 CALM      30.04S
CORVALLIS      CLOUDY    45  43  93 NW3       30.06S
EUGENE         CLEAR     46  44  93 SW8       30.06S FOG
$$

ORZ021-028-271400-
SOUTHWEST OREGON


CITY           SKY/WX    TMP DP  RH WIND       PRES   REMARKS
NORTH BEND     CLOUDY    52  52 100 SE8       30.11F
BROOKINGS      FOG       50  50 100 CALM      30.13S VSB 1/2
ROSEBURG       CLEAR     50  47  89 CALM      30.07S
SEXTON SUMMIT  CLEAR     54  44  69 S10       30.12F
MEDFORD        CLEAR     47  45  93 CALM      30.10S
$$

ORZ014>016-041-271400-
COLUMBIA GORGE


CITY           SKY/WX    TMP DP  RH WIND       PRES   REMARKS
TROUTDALE      CLEAR     47  44  90 CALM      30.05R
THE DALLES     CLEAR     46  44  93 CALM      30.08S
$$

ORZ029>031-041-044-049-050-061>064-502-503-505>511-271400-
EASTERN OREGON


CITY           SKY/WX    TMP DP  RH WIND       PRES   REMARKS
REDMOND        CLEAR     36  35  96 E5        30.11F WCI  32
BEND           CLEAR     41  37  87 CALM      30.12F
PRINEVILLE     CLEAR     41  39  93 E5        30.13S
KLAMATH FALLS  CLEAR     35  33  92 CALM      30.19S
LAKEVIEW       CLEAR     30  27  86 NW7       30.23S WCI  23
HERMISTON      CLEAR     44  42  93 S3        30.06S
PENDLETON      CLEAR     45  42  89 CALM      30.05F
JOHN DAY       CLEAR     46  41  82 E10       30.16F
MEACHAM        CLEAR     36  34  92 CALM      30.14F
LA GRANDE      CLEAR     39  30  70 NW9       30.16S WCI  33
BAKER CITY     FOG       32  32 100 CALM      30.21S VSB 3/4
BURNS          CLEAR     33  30  88 CALM      30.21S
ROME             N/A     37  28  70 S5        30.21S WCI  33
ONTARIO        CLEAR     37  34  89 CALM      30.25S
$$



USA.gov is the U.S. government's official web portal to all federal, state and local government web resources and services.